Showing default

ESSA 5, 2757

Orbit data source: Space-Track

ESSA 5, 2757 is a payload satellite owned by ESSA (US) in SSO that was launched on Thu, 20 Apr 1967 UTC via a THOR DELTA E launch vehicle from the Air Force Western Test Range (AFWTR). Payload-class satellites include a variety of spacecraft equipped with specific instruments for various scientific and technological missions. These include communications satellites like Starlink; space stations such as the ISS; scientific satellites like the Hubble; Earth observation satellites from companies like Planet Labs, Umbra, and HawkEye 360; GPS; miniature CubeSats for education and research; and military/defense satellites.

Loading next visibility...
Identifier
2757, 1967-036A
Orbit
SSO
Country
Flag of USUS
Related business
Manufacturer
RCA/East Windsor
Mission
Non-operational Civil Weather
Bus & Motor
TIROS I, Unknown motor
Mass
147 kg wet, 147 kg dry
Launch date (UTC)
1967-04-20 (58 years ago)
Launch vehicle
THOR DELTA E
Launch site
Air Force Western Test Range (AFWTR)
Object type
Payload
Rocket body
Debris
Shape & HBR
Cyl, 0.6 m
Radar Cross Section
0.994 m², Medium (>0.1 m² and < 1m²)

Expand to show TLE details & history
Last TLE update: 1 day ago

TLE from 1 day ago
0 ESSA 5
1 02757U 67036A   25260.06831623 -.00000022  00000-0  13293-3 0  9993
2 02757 101.9746  67.2750 0043053  68.3405  41.4469 12.68537645704342
Epoch: 2025-09-17T01:38Z
TLE epoch observation values (Epoch: 2025-09-17T01:38:22.522Z)
Latitude
66.80065°
Longitude
-104.06938°
Altitude
1,374.278 km
Speed
7.19 km/s
True Right ascension
18h 27m 05s
True Declination
66° 41' 09"
Sunlit
Object was in daylight at epoch
Visualization orbit readout
Latitude
Unknown
Longitude
Unknown
Altitude
Unknown
Speed
Unknown
Apparent Right ascension
Unknown
Apparent Declination
Unknown
Sunlit
N/A
Visualization observer readout
Local Sidereal Time
21:06:32
Azimuth
Unknown
Elevation
Unknown
Doppler factor
Unknown
Orbital elements
Apogee altitude
1,418.863 km
Perigee altitude
1,352.014 km
Semi-major axis
7,763.576 km
Eccentricity
0.00431
Inclination
101.9746°
RAAN
67.275°
Arg. of periapsis
68.3405°
True anomaly
41.77478°
Mean anomaly
41.4469°
Eccentric anomaly
41.61071°
Mean motion
3.17286 °/min
Orbital period
113.46 mins
BSTAR
0.00013293
Loading maneuver chart data...
Computing Atmospheric mass density...
Loading historical data...
Loading historical data...
Loading historical data...
Loading historical data...
Loading historical data...
Loading historical data...
Loading historical data...
Other satellites on launch #36 in the year 1967 (1967-04-20 UTC)

Documentation

Showing up to 5 results
|